DW6610 Weather Reports


time (UTC)temp
C
wind
direction
speed
KPH
gust
KPH
rain 1hr
cm
rain 24hr
cm
rain mn
cm
humidity
%
barometer
mb
20260906004051 31 0 0.0 1.6 0.00 0.00 0.00 72 1011.3
20260906003551 32 0 0.0 1.6 0.00 0.00 0.00 71 1011.3
20260906003100 32 126 0.0 1.6 0.00 0.00 0.00 70 1011.4
20260906002552 32 127 0.0 1.6 0.00 0.00 0.00 69 1011.3
20260906002052 32 0 0.0 1.6 0.00 0.00 0.00 67 1011.3
20260906001606 33 127 0.0 1.6 0.00 0.00 0.00 65 1011.4
20260906001051 33 0 0.0 1.6 0.00 0.00 0.00 66 1011.3
20260906000551 33 127 0.0 1.6 0.00 0.00 0.00 64 1011.3
20260905235553 35 0 0.0 1.6 0.00 0.00 0.00 56 1011.4
20260905235051 35 0 0.0 1.6 0.00 0.00 0.00 55 1011.4
20260905234601 35 0 0.0 1.6 0.00 0.00 0.00 53 1011.4
20260905234052 36 127 0.0 4.8 0.00 0.00 0.00 52 1011.4
20260905233551 36 0 0.0 4.8 0.00 0.00 0.00 52 1011.5
20260905233059 36 0 0.0 4.8 0.00 0.00 0.00 50 1011.5
20260905232551 37 0 0.0 1.6 0.00 0.00 0.00 50 1011.5
20260905232054 37 123 0.0 1.6 0.00 0.00 0.00 48 1011.5
20260905231557 37 129 0.0 3.2 0.00 0.00 0.00 48 1011.5
20260905231051 37 136 0.0 3.2 0.00 0.00 0.00 49 1011.6
20260905230551 37 0 0.0 3.2 0.00 0.00 0.00 47 1011.6
20260905230103 37 136 0.0 4.8 0.00 0.00 0.00 48 1011.6
20260905225551 37 146 1.6 4.8 0.00 0.00 0.00 47 1011.6
20260905225051 38 129 0.0 4.8 0.00 0.00 0.00 47 1011.6
20260905224601 38 185 0.0 3.2 0.00 0.00 0.00 46 1011.7
20260905224054 37 150 1.6 3.2 0.00 0.00 0.00 46 1011.7
20260905223551 38 125 1.6 3.2 0.00 0.00 0.00 46 1011.7
20260905223104 38 105 0.0 6.4 0.00 0.00 0.00 46 1011.7
20260905222551 38 104 1.6 6.4 0.00 0.00 0.00 49 1011.7
20260905222050 37 92 1.6 6.4 0.00 0.00 0.00 48 1011.7
20260905221602 37 127 1.6 6.4 0.00 0.00 0.00 47 1011.6
20260905221052 37 134 0.0 4.8 0.00 0.00 0.00 47 1011.8
20260905220551 37 147 1.6 4.8 0.00 0.00 0.00 47 1011.7
20260905220104 38 129 1.6 6.4 0.00 0.00 0.00 45 1011.8
20260905215551 38 100 3.2 6.4 0.00 0.00 0.00 48 1011.8
20260905215052 38 124 1.6 6.4 0.00 0.00 0.00 47 1011.8
20260905214601 38 70 1.6 8.0 0.00 0.00 0.00 48 1011.8
20260905214051 38 89 1.6 9.7 0.00 0.00 0.00 51 1011.8
20260905213553 37 105 3.2 9.7 0.00 0.00 0.00 51 1011.8
20260905213101 37 158 3.2 9.7 0.00 0.00 0.00 52 1011.8
20260905212552 37 79 3.2 11.3 0.00 0.00 0.00 51 1011.8
20260905212051 37 153 4.8 11.3 0.00 0.00 0.00 49 1011.8
20260905211613 38 89 3.2 11.3 0.00 0.00 0.00 49 1011.8
20260905211051 39 225 3.2 11.3 0.00 0.00 0.00 46 1011.9
20260905210550 39 33 1.6 9.7 0.00 0.00 0.00 47 1011.8
20260905210120 39 150 1.6 9.7 0.00 0.00 0.00 46 1011.9
20260905205551 39 78 1.6 9.7 0.00 0.00 0.00 47 1012.0
20260905205051 39 61 3.2 9.7 0.00 0.00 0.00 50 1012.1
20260905204601 38 95 3.2 9.7 0.00 0.00 0.00 50 1012.2
20260905204050 38 65 3.2 9.7 0.00 0.00 0.00 48 1012.2
20260905203555 39 97 3.2 9.7 0.00 0.00 0.00 50 1012.1
20260905203101 39 104 3.2 9.7 0.00 0.00 0.00 48 1012.4
20260905202555 39 129 3.2 9.7 0.00 0.00 0.00 45 1012.5
20260905202049 39 132 3.2 9.7 0.00 0.00 0.00 46 1012.5
20260905201602 38 132 3.2 8.0 0.00 0.00 0.00 49 1012.9
20260905201051 38 104 1.6 8.0 0.00 0.00 0.00 49 1012.9
20260905200551 38 204 1.6 8.0 0.00 0.00 0.00 51 1012.8
20260905200130 37 192 1.6 8.0 0.00 0.00 0.00 51 1012.9
20260905195551 37 106 3.2 11.3 0.00 0.00 0.00 51 1012.9
20260905195051 37 81 3.2 11.3 0.00 0.00 0.00 50 1013.0
20260905194601 37 159 4.8 16.1 0.00 0.00 0.00 49 1013.1
20260905194053 38 164 6.4 16.1 0.00 0.00 0.00 46 1013.1
20260905193550 39 129 3.2 16.1 0.00 0.00 0.00 44 1013.1
20260905193108 40 156 1.6 8.0 0.00 0.00 0.00 44 1013.2
20260905192552 40 98 1.6 6.4 0.00 0.00 0.00 45 1013.2
20260905192052 39 118 1.6 6.4 0.00 0.00 0.00 44 1013.4
20260905191601 39 119 1.6 6.4 0.00 0.00 0.00 47 1013.4
20260905191051 39 136 1.6 8.0 0.00 0.00 0.00 45 1013.5
20260905190552 39 333 3.2 8.0 0.00 0.00 0.00 45 1013.6
20260905190105 39 79 1.6 8.0 0.00 0.00 0.00 49 1013.6
20260905185550 38 150 3.2 11.3 0.00 0.00 0.00 46 1013.6
20260905185051 38 129 3.2 11.3 0.00 0.00 0.00 50 1013.7
20260905184611 38 176 3.2 11.3 0.00 0.00 0.00 48 1013.7
20260905184053 38 87 3.2 9.7 0.00 0.00 0.00 51 1013.7
20260905183552 38 221 1.6 12.9 0.00 0.00 0.00 49 1013.9
20260905183102 38 118 1.6 12.9 0.00 0.00 0.00 50 1014.0
20260905182551 38 122 3.2 12.9 0.00 0.00 0.00 47 1014.1
20260905182052 39 203 3.2 8.0 0.00 0.00 0.00 48 1014.0
20260905181607 39 167 1.6 4.8 0.00 0.00 0.00 48 1014.0
20260905181051 38 75 0.0 4.8 0.00 0.00 0.00 52 1014.0
20260905180552 38 0 1.6 4.8 0.00 0.00 0.00 49 1014.1
20260905180106 39 96 0.0 3.2 0.00 0.00 0.00 48 1014.2
20260905175554 38 86 1.6 8.0 0.00 0.00 0.00 50 1014.2
20260905175052 38 115 1.6 8.0 0.00 0.00 0.00 48 1014.4
20260905174606 39 101 3.2 6.4 0.00 0.00 0.00 47 1014.3
20260905174051 38 66 3.2 6.4 0.00 0.00 0.00 49 1014.3
20260905173551 38 89 0.0 8.0 0.00 0.00 0.00 52 1014.4
20260905173104 38 188 1.6 8.0 0.00 0.00 0.00 50 1014.3
20260905172551 38 103 1.6 9.7 0.00 0.00 0.00 55 1014.4
20260905172051 38 235 3.2 9.7 0.00 0.00 0.00 51 1014.4
20260905171601 38 108 1.6 9.7 0.00 0.00 0.00 51 1014.5
20260905171052 38 346 1.6 8.0 0.00 0.00 0.00 51 1014.7
20260905170552 38 204 1.6 8.0 0.00 0.00 0.00 52 1014.7
20260905170104 37 96 3.2 8.0 0.00 0.00 0.00 52 1014.7
20260905165551 38 123 0.0 6.4 0.00 0.00 0.00 53 1014.8
20260905165051 37 135 1.6 6.4 0.00 0.00 0.00 54 1014.9
20260905164606 37 129 1.6 6.4 0.00 0.00 0.00 50 1014.9
20260905164055 37 143 1.6 6.4 0.00 0.00 0.00 51 1015.0
20260905163551 37 32 1.6 6.4 0.00 0.00 0.00 52 1015.1
20260905163108 37 130 1.6 6.4 0.00 0.00 0.00 55 1015.1
20260905162551 37 98 1.6 6.4 0.00 0.00 0.00 54 1015.2
20260905162052 37 101 0.0 8.0 0.00 0.00 0.00 59 1015.1
20260905161606 36 115 3.2 8.0 0.00 0.00 0.00 56 1015.3
20260905161052 37 122 1.6 6.4 0.00 0.00 0.00 59 1015.3
20260905160551 36 103 1.6 6.4 0.00 0.00 0.00 60 1015.4
20260905160106 36 122 1.6 6.4 0.00 0.00 0.00 55 1015.5
20260905155552 36 121 1.6 6.4 0.00 0.00 0.00 60 1015.5
20260905155051 36 175 1.6 4.8 0.00 0.00 0.00 62 1015.5
20260905154606 35 123 1.6 4.8 0.00 0.00 0.00 62 1015.4
20260905154053 36 152 1.6 4.8 0.00 0.00 0.00 63 1015.4
20260905153555 36 136 0.0 4.8 0.00 0.00 0.00 61 1015.4
20260905153104 36 93 1.6 4.8 0.00 0.00 0.00 64 1015.4
20260905152552 35 97 0.0 4.8 0.00 0.00 0.00 63 1015.5
20260905152051 35 0 1.6 4.8 0.00 0.00 0.00 62 1015.5
20260905151636 35 0 0.0 3.2 0.00 0.00 0.00 64 1015.6
20260905151052 35 84 0.0 3.2 0.00 0.00 0.00 63 1015.6
20260905150551 35 157 0.0 3.2 0.00 0.00 0.00 64 1015.5
20260905150109 35 160 0.0 4.8 0.00 0.00 0.00 67 1015.6
20260905145553 35 0 0.0 4.8 0.00 0.00 0.00 68 1015.6
20260905145053 34 117 0.0 1.6 0.00 0.00 0.00 65 1015.6
20260905144605 34 0 0.0 1.6 0.00 0.00 0.00 68 1015.5
20260905144051 33 0 0.0 3.2 0.00 0.00 0.00 69 1015.3
20260905143552 33 136 0.0 4.8 0.00 0.00 0.00 71 1015.3
20260905143104 33 131 0.0 4.8 0.00 0.00 0.00 70 1015.4
20260905142555 33 0 0.0 4.8 0.00 0.00 0.00 67 1015.4
20260905142051 32 105 0.0 4.8 0.00 0.00 0.00 71 1015.5
20260905141601 32 108 1.6 4.8 0.00 0.00 0.00 71 1015.5
20260905141050 32 109 0.0 4.8 0.00 0.00 0.00 72 1015.5
20260905140551 32 93 0.0 1.6 0.00 0.00 0.00 73 1015.5
20260905140105 32 72 0.0 3.2 0.00 0.00 0.00 73 1015.4
20260905135551 31 0 0.0 3.2 0.00 0.00 0.00 73 1015.3
20260905135052 31 72 0.0 1.6 0.00 0.00 0.00 75 1015.3
20260905134607 31 72 0.0 1.6 0.00 0.00 0.00 75 1015.3
20260905134055 30 82 0.0 1.6 0.00 0.00 0.00 77 1015.3
20260905133552 30 0 0.0 1.6 0.00 0.00 0.00 77 1015.3
20260905133103 29 0 0.0 1.6 0.00 0.00 0.00 80 1015.3
20260905132551 28 81 0.0 1.6 0.00 0.00 0.00 80 1015.3
20260905132051 28 0 0.0 3.2 0.00 0.00 0.00 84 1015.2
20260905131609 27 0 0.0 3.2 0.00 0.00 0.00 85 1015.3
20260905131052 27 77 0.0 4.8 0.00 0.00 0.00 86 1015.4
20260905130551 26 58 0.0 4.8 0.00 0.00 0.00 88 1015.2
20260905130104 26 81 1.6 4.8 0.00 0.00 0.00 89 1015.2
20260905125551 25 51 0.0 3.2 0.00 0.00 0.00 90 1015.1
20260905125054 25 76 0.0 3.2 0.00 0.00 0.00 91 1015.2
20260905124601 25 76 0.0 3.2 0.00 0.00 0.00 92 1015.2
20260905124052 25 0 0.0 1.6 0.00 0.00 0.00 93 1015.2
20260905123552 24 0 0.0 0.0 0.00 0.00 0.00 93 1015.3
20260905123113 24 0 0.0 0.0 0.00 0.00 0.00 94 1015.1
20260905122554 24 0 0.0 1.6 0.00 0.00 0.00 94 1015.1
20260905122052 24 0 0.0 1.6 0.00 0.00 0.00 94 1015.1
20260905121559 24 0 0.0 1.6 0.00 0.00 0.00 94 1015.0
20260905121052 24 82 0.0 1.6 0.00 0.00 0.00 94 1014.9
20260905120554 24 0 0.0 1.6 0.00 0.00 0.00 94 1014.9
20260905120105 23 0 0.0 1.6 0.00 0.00 0.00 94 1014.9
20260905115551 23 0 0.0 1.6 0.00 0.00 0.00 94 1014.9
20260905115052 23 0 0.0 1.6 0.00 0.00 0.00 94 1014.9
20260905114600 23 0 0.0 3.2 0.00 0.00 0.00 95 1014.9
20260905114051 23 79 0.0 3.2 0.00 0.00 0.00 95 1014.8
20260905113552 23 47 0.0 1.6 0.00 0.00 0.00 95 1014.9
20260905113107 23 79 0.0 1.6 0.00 0.00 0.00 95 1014.8
20260905112555 23 0 0.0 1.6 0.00 0.00 0.00 95 1014.6
20260905112053 23 0 0.0 1.6 0.00 0.00 0.00 96 1014.5
20260905111604 23 0 0.0 1.6 0.00 0.00 0.00 96 1014.6
20260905111052 23 0 0.0 1.6 0.00 0.00 0.00 96 1014.6
20260905110555 23 0 0.0 1.6 0.00 0.00 0.00 96 1014.6
20260905110100 23 0 0.0 0.0 0.00 0.00 0.00 96 1014.6
20260905105551 23 0 0.0 0.0 0.00 0.00 0.00 96 1014.4
20260905105052 23 0 0.0 1.6 0.00 0.00 0.00 96 1014.5
20260905104600 23 0 0.0 1.6 0.00 0.00 0.00 96 1014.5
20260905104051 23 0 0.0 1.6 0.00 0.00 0.00 96 1014.4
20260905103551 23 0 0.0 0.0 0.00 0.00 0.00 96 1014.5
20260905103106 23 0 0.0 0.0 0.00 0.00 0.00 96 1014.4
20260905102554 23 0 0.0 0.0 0.00 0.00 0.00 95 1014.4
20260905102051 23 0 0.0 1.6 0.00 0.00 0.00 95 1014.3
20260905101606 23 0 0.0 1.6 0.00 0.00 0.00 95 1014.3
20260905101051 23 0 0.0 0.0 0.00 0.00 0.00 95 1014.3
20260905100552 23 0 0.0 0.0 0.00 0.00 0.00 95 1014.3
20260905100109 23 0 0.0 0.0 0.00 0.00 0.00 95 1014.4
20260905095552 23 0 0.0 0.0 0.00 0.00 0.00 95 1014.3
20260905095051 23 0 0.0 0.0 0.00 0.00 0.00 94 1014.3
20260905094603 24 0 0.0 0.0 0.00 0.00 0.00 94 1014.3
20260905094051 24 0 0.0 0.0 0.00 0.00 0.00 94 1014.4
20260905093552 24 0 0.0 0.0 0.00 0.00 0.00 94 1014.4
20260905093105 24 0 0.0 1.6 0.00 0.00 0.00 94 1014.2
20260905092552 24 0 0.0 1.6 0.00 0.00 0.00 94 1014.2
20260905092052 24 77 0.0 1.6 0.00 0.00 0.00 94 1014.2
20260905091604 24 0 0.0 1.6 0.00 0.00 0.00 94 1014.3
20260905091052 24 0 0.0 0.0 0.00 0.00 0.00 94 1014.3
20260905090551 24 0 0.0 0.0 0.00 0.00 0.00 94 1014.3
20260905090100 24 0 0.0 0.0 0.00 0.00 0.00 94 1014.3
20260905085553 24 0 0.0 0.0 0.00 0.00 0.00 93 1014.3
20260905085051 24 0 0.0 0.0 0.00 0.00 0.00 93 1014.3
20260905084611 24 0 0.0 0.0 0.00 0.00 0.00 93 1014.3
20260905084052 24 0 0.0 0.0 0.00 0.00 0.00 93 1014.2
20260905083554 25 0 0.0 1.6 0.00 0.00 0.00 93 1014.2
20260905083100 25 0 0.0 1.6 0.00 0.00 0.00 93 1014.2
20260905082551 25 0 0.0 1.6 0.00 0.00 0.00 93 1014.2
20260905082051 25 0 0.0 0.0 0.00 0.00 0.00 93 1014.3
20260905081603 25 0 0.0 0.0 0.00 0.00 0.00 93 1014.4
20260905081051 25 0 0.0 0.0 0.00 0.00 0.00 92 1014.5
20260905080551 25 0 0.0 0.0 0.00 0.00 0.00 92 1014.5
20260905080140 25 0 0.0 0.0 0.00 0.00 0.00 92 1014.4
20260905075550 25 0 0.0 0.0 0.00 0.00 0.00 92 1014.5
20260905075051 25 0 0.0 0.0 0.00 0.00 0.00 92 1014.5
20260905074603 25 0 0.0 0.0 0.00 0.00 0.00 92 1014.4
20260905074052 25 0 0.0 0.0 0.00 0.00 0.00 92 1014.4
20260905073551 25 0 0.0 1.6 0.00 0.00 0.00 92 1014.4
20260905073105 25 0 0.0 1.6 0.00 0.00 0.00 91 1014.4
20260905072554 25 0 0.0 1.6 0.00 0.00 0.00 91 1014.4
20260905072051 25 0 0.0 0.0 0.00 0.00 0.00 91 1014.4
20260905071605 25 0 0.0 0.0 0.00 0.00 0.00 90 1014.4
20260905071051 25 0 0.0 0.0 0.00 0.00 0.00 90 1014.4
20260905070555 25 0 0.0 0.0 0.00 0.00 0.00 89 1014.5
20260905070106 25 0 0.0 0.0 0.00 0.00 0.00 89 1014.5
20260905065553 25 0 0.0 0.0 0.00 0.00 0.00 89 1014.4
20260905065051 25 0 0.0 0.0 0.00 0.00 0.00 89 1014.5
20260905064605 26 0 0.0 0.0 0.00 0.00 0.00 89 1014.4
20260905064052 26 0 0.0 0.0 0.00 0.00 0.00 88 1014.4
20260905063551 26 0 0.0 0.0 0.00 0.00 0.00 89 1014.5
20260905063102 26 0 0.0 0.0 0.00 0.00 0.00 89 1014.6
20260905062551 26 0 0.0 0.0 0.00 0.00 0.00 87 1014.5
20260905062051 26 0 0.0 0.0 0.00 0.00 0.00 87 1014.4
20260905061609 26 0 0.0 0.0 0.00 0.00 0.00 86 1014.4
20260905061052 26 0 0.0 0.0 0.00 0.00 0.00 85 1014.4
20260905060551 26 0 0.0 0.0 0.00 0.00 0.00 84 1014.4
20260905060109 26 0 0.0 0.0 0.00 0.00 0.00 83 1014.5
20260905055553 26 0 0.0 0.0 0.00 0.00 0.00 83 1014.5
20260905055056 26 0 0.0 0.0 0.00 0.00 0.00 83 1014.5
20260905054616 26 0 0.0 0.0 0.00 0.00 0.00 82 1014.4
20260905054052 26 0 0.0 0.0 0.00 0.00 0.00 83 1014.4
20260905053555 26 0 0.0 0.0 0.00 0.00 0.00 82 1014.5
20260905053117 26 0 0.0 0.0 0.00 0.00 0.00 82 1014.5
20260905052556 26 0 0.0 0.0 0.00 0.00 0.00 81 1014.4
20260905052051 27 0 0.0 0.0 0.00 0.00 0.00 81 1014.6
20260905051601 27 0 0.0 0.0 0.00 0.00 0.00 80 1014.5
20260905051051 27 0 0.0 0.0 0.00 0.00 0.00 80 1014.5
20260905050551 27 0 0.0 0.0 0.00 0.00 0.00 80 1014.6
20260905050106 27 0 0.0 0.0 0.00 0.00 0.00 80 1014.5
20260905045551 27 0 0.0 0.0 0.00 0.00 0.00 79 1014.5
20260905045052 27 0 0.0 0.0 0.00 0.00 0.00 79 1014.5
20260905044607 27 0 0.0 1.6 0.00 0.00 0.00 79 1014.6
20260905044052 27 0 0.0 1.6 0.00 0.00 0.00 78 1014.6
20260905043551 27 0 0.0 1.6 0.00 0.00 0.00 78 1014.7
20260905043114 27 0 0.0 0.0 0.00 0.00 0.00 78 1014.7
20260905042552 27 89 0.0 0.0 0.00 0.00 0.00 79 1014.6
20260905042052 27 0 0.0 0.0 0.00 0.00 0.00 78 1014.6
20260905041603 27 0 0.0 0.0 0.00 0.00 0.00 78 1014.6
20260905041055 28 0 0.0 1.6 0.00 0.00 0.00 78 1014.6
20260905040551 28 0 0.0 1.6 0.00 0.00 0.00 78 1014.7
20260905040146 28 89 0.0 1.6 0.00 0.00 0.00 77 1014.7
20260905035552 28 0 0.0 1.6 0.00 0.00 0.00 77 1014.6
20260905035052 28 0 0.0 1.6 0.00 0.00 0.00 78 1014.6
20260905034602 28 0 0.0 1.6 0.00 0.00 0.00 78 1014.6
20260905034051 28 89 0.0 1.6 0.00 0.00 0.00 77 1014.6
20260905033551 28 89 0.0 1.6 0.00 0.00 0.00 76 1014.6
20260905033101 28 0 0.0 1.6 0.00 0.00 0.00 75 1014.6
20260905032555 29 0 0.0 1.6 0.00 0.00 0.00 73 1014.7
20260905032051 29 0 0.0 1.6 0.00 0.00 0.00 73 1014.6
20260905031604 29 0 0.0 1.6 0.00 0.00 0.00 72 1014.7
20260905031054 29 0 0.0 1.6 0.00 0.00 0.00 72 1014.7
20260905030551 30 89 0.0 3.2 0.00 0.00 0.00 71 1014.7
20260905025552 30 96 0.0 1.6 0.00 0.00 0.00 71 1014.8
20260905025051 30 0 0.0 1.6 0.00 0.00 0.00 71 1014.7
20260905024601 30 0 0.0 1.6 0.00 0.00 0.00 71 1014.6
20260905024051 30 0 0.0 1.6 0.00 0.00 0.00 70 1014.6
20260905023551 30 0 0.0 1.6 0.00 0.00 0.00 69 1014.5
20260905023102 30 92 0.0 1.6 0.00 0.00 0.00 69 1014.5
20260905022552 30 0 0.0 3.2 0.00 0.00 0.00 68 1014.6
20260905022054 30 0 0.0 3.2 0.00 0.00 0.00 68 1014.5
20260905021600 30 0 0.0 1.6 0.00 0.00 0.00 68 1014.6
20260905021054 31 88 0.0 4.8 0.00 0.00 0.00 68 1014.5
20260905020554 31 0 0.0 4.8 0.00 0.00 0.00 67 1014.4
20260905020100 30 52 0.0 4.8 0.00 0.00 0.00 68 1014.4
20260905015552 30 0 0.0 4.8 0.00 0.00 0.00 69 1014.4
20260905015052 30 236 0.0 1.6 0.00 0.00 0.00 70 1014.4
20260905014602 30 76 0.0 1.6 0.00 0.00 0.00 70 1014.3
20260905014051 30 0 0.0 1.6 0.00 0.00 0.00 71 1014.2
20260905013552 30 0 0.0 1.6 0.00 0.00 0.00 71 1014.0
20260905013100 30 0 0.0 0.0 0.00 0.00 0.00 72 1014.2
20260905012551 30 0 0.0 0.0 0.00 0.00 0.00 71 1014.2
20260905012051 30 0 0.0 0.0 0.00 0.00 0.00 71 1014.2
20260905011617 31 0 0.0 0.0 0.00 0.00 0.00 70 1014.1
20260905011050 31 0 0.0 0.0 0.00 0.00 0.00 69 1014.1
20260905010552 31 0 0.0 1.6 0.00 0.00 0.00 68 1014.1
20260905010100 32 0 0.0 1.6 0.00 0.00 0.00 66 1014.0
20260905005551 32 0 0.0 1.6 0.00 0.00 0.00 64 1014.0
20260905005051 32 0 0.0 1.6 0.00 0.00 0.00 61 1013.9
20260905004600 32 0 0.0 0.0 0.00 0.00 0.00 59 1014.0